COSMOS 2251 DEB, 35443

Orbit data source: Space-Track

COSMOS 2251 DEB, 35443 is space debris in LEO originally from a launch on Wed, 16 Jun 1993 UTC launched from the Plesetsk Missile And Space Complex (PKMTR). The debris from Iridium 33, an American commercial communications satellite, has been tracked extensively since its accidental collision with the defunct Russian satellite Cosmos 2251 in 2009. This event, occurring at high speed in low Earth orbit (LEO), generated thousands of pieces of space debris, significantly increasing the risk of further collisions. The Iridium 33 debris cloud has impacted space traffic management and orbital debris mitigation strategies, making it a subject of ongoing study in space situational awareness.

Loading next visibility...
Identifier
35443, 1993-036AKM
Orbit
LEO
Country
Flag of CISCIS
Related business
Manufacturer
Unknown
Mission
Spacecraft
Bus & Motor
Unknown
Mass
Unknown
Launch date (UTC)
1993-06-16 (33 years ago)
Launch vehicle
Unknown
Launch site
Plesetsk Missile And Space Complex (PKMTR)
Object type
Payload
Rocket body
Debris
Shape & HBR
Unknown shape, 0.1 m
Radar Cross Section
Small (<0.1 m²)

Expand to show TLE details & history
Last TLE update: 1 day ago

TLE from 1 day ago
0 COSMOS 2251 DEB
1 35443U 93036AKM 25352.17370940  .00035302  00000-0  28832-2 0  9996
2 35443  73.9862 320.5674 0072974 101.0134 259.9271 14.97139809869595
Epoch: 2025-12-18T04:10Z
TLE epoch observation values (Epoch: 2025-12-18T04:10:08.492Z)
Latitude
0.00005°
Longitude
170.99902°
Altitude
587.656 km
Speed
7.562 km/s
True Right ascension
21h 22m 16s
True Declination
0° 00' 00"
Sunlit
Object was in daylight at epoch
Visualization orbit readout
Latitude
Unknown
Longitude
Unknown
Altitude
Unknown
Speed
Unknown
Apparent Right ascension
Unknown
Apparent Declination
Unknown
Sunlit
N/A
Visualization observer readout
Local Sidereal Time
05:24:57
Azimuth
Unknown
Elevation
Unknown
Doppler factor
Unknown
Orbital elements
Apogee altitude
624.027 km
Perigee altitude
522.572 km
Semi-major axis
6,951.437 km
Eccentricity
0.0073
Inclination
73.9862°
RAAN
320.5674°
Arg. of periapsis
101.0134°
True anomaly
259.10511°
Mean anomaly
259.9271°
Eccentric anomaly
259.51597°
Mean motion
3.74482 °/min
Orbital period
96.13 mins
BSTAR
0.0028832
Loading maneuver chart data...
Computing Atmospheric mass density...

Documentation

Showing up to 5 results
|